FW6282 Weather Reports


Display with metric or nautical units.
time (UTC)temp
F
wind
direction
speed
MPH
gust
MPH
rain 1hr
in
rain 24hr
in
rain mn
in
humidity
%
barometer
mb
20200706123329 81 118 4.0 10.0 0.01 0.39 0.01 90 1005.1
20200706122824 82 148 4.0 9.0 0.01 0.39 0.01 88 1005.0
20200706122337 82 157 5.0 9.0 0.01 0.39 0.01 88 1005.1
20200706121829 82 101 3.0 6.0 0.01 0.39 0.01 88 1005.1
20200706121321 82 105 4.0 6.0 0.01 0.39 0.01 88 1005.0
20200706120841 82 116 5.0 6.0 0.00 0.38 0.00 89 1004.9
20200706120333 82 95 3.0 8.0 0.00 0.38 0.00 90 1004.8
20200706115843 82 128 3.0 5.0 0.00 0.38 0.00 91 1004.7
20200706115335 81 112 2.0 5.0 0.00 0.38 0.00 93 1004.6
20200706114828 81 24 3.0 5.0 0.00 0.38 0.00 94 1004.6
20200706114339 80 81 1.0 2.0 0.00 0.38 0.00 95 1004.7
20200706113833 80 112 0.0 1.0 0.00 0.38 0.00 95 1004.7
20200706113328 79 182 0.0 0.0 0.00 0.38 0.00 95 1004.7
20200706112841 79 181 0.0 0.0 0.00 0.38 0.00 95 1004.7
20200706112338 79 181 0.0 0.0 0.00 0.38 0.00 95 1004.8
20200706111832 79 181 0.0 0.0 0.00 0.38 0.00 95 1004.7
20200706111328 79 181 0.0 0.0 0.00 0.38 0.00 95 1004.6
20200706110824 79 181 0.0 0.0 0.00 0.38 0.00 95 1004.6
20200706110321 79 181 0.0 0.0 0.00 0.38 0.00 95 1004.6
20200706105837 78 181 0.0 1.0 0.00 0.38 0.00 95 1004.4
20200706105332 78 181 0.0 1.0 0.00 0.38 0.00 95 1004.5
20200706104830 78 181 0.0 2.0 0.00 0.38 0.00 95 1004.4
20200706104330 78 180 0.0 2.0 0.00 0.38 0.00 95 1004.4
20200706103825 78 172 0.0 2.0 0.00 0.38 0.00 95 1004.4
20200706103339 78 172 0.0 2.0 0.00 0.38 0.00 95 1004.4
20200706102835 78 176 0.0 2.0 0.00 0.38 0.00 95 1004.2
20200706102330 78 176 0.0 1.0 0.00 0.38 0.00 95 1004.2
20200706101828 77 176 0.0 2.0 0.00 0.38 0.00 94 1004.2
20200706100834 77 176 0.0 2.0 0.00 0.38 0.00 94 1004.1
20200706100329 77 176 1.0 2.0 0.00 0.38 0.00 94 1004.1
20200706095845 77 176 1.0 2.0 0.00 0.38 0.00 94 1004.2
20200706095338 77 176 1.0 2.0 0.00 0.38 0.00 94 1004.1
20200706094834 77 176 1.0 1.0 0.00 0.38 0.00 93 1004.1
20200706094332 77 176 0.0 2.0 0.00 0.38 0.00 93 1004.1
20200706093830 77 176 1.0 2.0 0.00 0.38 0.00 93 1004.0
20200706093343 78 174 1.0 2.0 0.00 0.38 0.00 93 1004.1
20200706092836 78 119 0.0 2.0 0.00 0.38 0.00 93 1004.1
20200706092328 78 119 0.0 2.0 0.00 0.38 0.00 92 1004.0
20200706091824 78 119 0.0 0.0 0.00 0.38 0.00 93 1004.0
20200706091337 78 119 0.0 0.0 0.00 0.38 0.00 93 1003.9
20200706090834 78 119 0.0 0.0 0.00 0.38 0.00 93 1003.8
20200706090328 78 119 0.0 0.0 0.00 0.38 0.00 93 1003.8
20200706085821 78 119 0.0 2.0 0.00 0.38 0.00 93 1004.0
20200706085336 78 136 0.0 3.0 0.00 0.38 0.00 93 1003.8
20200706084829 78 136 1.0 3.0 0.00 0.38 0.00 93 1003.8
20200706084324 78 136 1.0 4.0 0.00 0.38 0.00 92 1003.7
20200706083820 78 136 3.0 4.0 0.00 0.38 0.00 92 1003.7
20200706083345 78 126 2.0 3.0 0.00 0.38 0.00 92 1003.6
20200706082839 78 68 2.0 2.0 0.00 0.38 0.00 92 1003.8
20200706082333 79 68 1.0 3.0 0.00 0.38 0.00 92 1003.8
20200706081828 79 74 1.0 4.0 0.00 0.38 0.00 92 1003.7
20200706081322 79 76 3.0 4.0 0.00 0.38 0.00 92 1003.7
20200706080837 79 104 2.0 4.0 0.00 0.38 0.00 91 1003.7
20200706080334 79 116 2.0 4.0 0.00 0.38 0.00 91 1003.7
20200706075828 79 110 2.0 4.0 0.00 0.38 0.00 90 1003.7
20200706075324 79 116 2.0 5.0 0.00 0.38 0.00 90 1003.7
20200706074819 79 115 2.0 6.0 0.00 0.38 0.00 89 1003.6
20200706074335 79 110 4.0 6.0 0.00 0.38 0.00 89 1003.6
20200706073829 79 59 3.0 6.0 0.00 0.38 0.00 89 1003.6
20200706073345 79 53 3.0 4.0 0.00 0.38 0.00 89 1003.7
20200706072840 79 35 3.0 4.0 0.00 0.38 0.00 89 1003.7
20200706072338 79 57 2.0 5.0 0.00 0.38 0.00 89 1003.7
20200706071831 79 70 4.0 6.0 0.00 0.38 0.00 89 1003.6
20200706071328 79 66 4.0 6.0 0.00 0.38 0.00 89 1003.6
20200706070822 79 24 4.0 6.0 0.00 0.38 0.00 89 1003.6
20200706070333 79 52 3.0 6.0 0.00 0.38 0.00 89 1003.6
20200706065826 79 76 3.0 5.0 0.00 0.38 0.00 89 1003.6
20200706065326 79 56 3.0 4.0 0.00 0.38 0.00 89 1003.6
20200706064820 79 50 3.0 9.0 0.00 0.38 0.00 88 1003.6
20200706064333 79 34 4.0 9.0 0.00 0.38 0.00 88 1003.6
20200706063829 79 42 6.0 8.0 0.00 0.38 0.00 88 1003.6
20200706063324 79 36 4.0 9.0 0.00 0.38 0.00 88 1003.6
20200706062844 79 68 6.0 9.0 0.00 0.38 0.00 89 1003.5
20200706062338 79 45 4.0 7.0 0.00 0.38 0.00 89 1003.7
20200706061828 79 59 3.0 5.0 0.00 0.38 0.00 89 1003.8
20200706061324 79 62 3.0 8.0 0.00 0.38 0.00 89 1003.8
20200706060837 79 72 3.0 8.0 0.00 0.38 0.00 90 1003.8
20200706060335 79 40 3.0 5.0 0.00 0.38 0.00 90 1003.8
20200706055828 79 53 2.0 5.0 0.00 0.38 0.00 90 1003.8
20200706055322 79 41 3.0 6.0 0.00 0.38 0.00 90 1004.0
20200706054821 79 57 2.0 6.0 0.00 0.38 0.00 90 1004.0
20200706054336 79 71 3.0 5.0 0.00 0.38 0.00 90 1004.0
20200706053833 79 44 3.0 5.0 0.00 0.38 0.00 90 1003.8
20200706053331 79 47 3.0 5.0 0.00 0.38 0.00 90 1003.9
20200706052826 79 35 4.0 5.0 0.00 0.38 0.00 90 1004.0
20200706052321 79 57 3.0 5.0 0.00 0.38 0.00 90 1004.0
20200706051834 79 47 3.0 6.0 0.00 0.38 0.00 90 1004.1
20200706051331 79 55 4.0 8.0 0.00 0.38 0.00 90 1004.1
20200706050827 79 33 4.0 8.0 0.00 0.38 0.00 89 1004.2
20200706050319 79 42 5.0 9.0 0.00 0.38 0.00 89 1004.2
20200706045832 79 62 6.0 9.0 0.00 0.38 0.00 89 1004.3
20200706045329 79 57 5.0 9.0 0.00 0.38 0.00 89 1004.4
20200706044823 79 35 6.0 9.0 0.00 0.38 0.00 89 1004.4
20200706044346 79 45 6.0 11.0 0.00 0.38 0.00 89 1004.4
20200706043840 79 45 6.0 11.0 0.00 0.38 0.00 89 1004.4
20200706043338 79 28 7.0 11.0 0.00 0.38 0.00 89 1004.4
20200706042829 79 41 8.0 11.0 0.00 0.38 0.00 89 1004.5
20200706042324 79 39 7.0 11.0 0.00 0.38 0.00 90 1004.6
20200706041819 79 57 7.0 10.0 0.00 0.38 0.00 90 1004.7
20200706041343 79 34 5.0 10.0 0.00 0.38 0.00 90 1004.7
20200706040839 79 44 5.0 9.0 0.00 0.38 0.00 90 1004.7
20200706040332 79 26 4.0 7.0 0.00 0.38 0.00 90 1004.8
20200706035837 79 53 4.0 6.0 0.00 0.38 0.38 90 1004.8
20200706035331 79 29 2.0 4.0 0.00 0.38 0.38 90 1004.8
20200706034827 79 44 3.0 6.0 0.00 0.38 0.38 90 1005.0
20200706034343 79 76 4.0 8.0 0.00 0.38 0.38 90 1005.1
20200706033841 79 45 4.0 9.0 0.00 0.38 0.38 91 1005.2
20200706033339 79 34 5.0 9.0 0.00 0.38 0.38 91 1005.3
20200706032831 79 32 3.0 8.0 0.00 0.38 0.38 91 1005.4
20200706032327 79 64 5.0 9.0 0.00 0.38 0.38 91 1005.6
20200706031833 79 18 6.0 10.0 0.00 0.38 0.38 92 1005.7
20200706031328 79 45 5.0 10.0 0.01 0.38 0.38 92 1005.7
20200706030333 78 31 3.0 9.0 0.01 0.38 0.38 93 1005.4
20200706025826 78 110 4.0 9.0 0.01 0.38 0.38 93 1005.5
20200706025321 78 71 4.0 6.0 0.01 0.38 0.38 93 1005.6
20200706024842 78 59 3.0 6.0 0.01 0.38 0.38 92 1005.6
20200706024337 78 41 2.0 6.0 0.01 0.38 0.38 92 1005.7
20200706023830 78 45 3.0 9.0 0.01 0.38 0.38 92 1005.7
20200706023328 78 51 5.0 10.0 0.01 0.38 0.38 92 1005.5
20200706022822 78 37 6.0 10.0 0.01 0.38 0.38 93 1005.5
20200706022318 78 42 4.0 10.0 0.01 0.38 0.38 93 1005.5
20200706021833 78 85 6.0 10.0 0.01 0.38 0.38 93 1005.6
20200706021327 78 30 3.0 6.0 0.00 0.37 0.37 93 1005.6
20200706020822 78 47 4.0 7.0 0.00 0.37 0.37 93 1005.6
20200706020337 78 6 4.0 5.0 0.00 0.37 0.37 93 1005.5
20200706015830 78 46 3.0 6.0 0.00 0.37 0.37 93 1005.4
20200706015328 78 47 3.0 8.0 0.04 0.37 0.37 93 1005.3
20200706014822 78 85 5.0 8.0 0.08 0.37 0.37 93 1005.6
20200706014345 78 74 4.0 9.0 0.08 0.37 0.37 93 1005.5
20200706013840 78 81 4.0 9.0 0.08 0.37 0.37 93 1005.5
20200706013336 78 26 3.0 8.0 0.08 0.37 0.37 93 1005.5
20200706012831 78 50 3.0 6.0 0.08 0.37 0.37 93 1005.5
20200706012327 78 85 3.0 6.0 0.08 0.37 0.37 93 1005.6
20200706011825 78 10 3.0 6.0 0.08 0.37 0.37 93 1005.5
20200706011340 78 90 4.0 6.0 0.08 0.37 0.37 92 1005.4
20200706010835 78 76 3.0 8.0 0.08 0.37 0.37 92 1005.5
20200706010331 79 103 4.0 11.0 0.08 0.37 0.37 92 1005.4
20200706005820 79 99 6.0 11.0 0.08 0.37 0.37 92 1005.4
20200706005335 79 52 5.0 9.0 0.03 0.32 0.32 91 1005.3
20200706004832 79 169 1.0 2.0 0.00 0.29 0.29 92 1005.0
20200706004328 79 171 1.0 2.0 0.00 0.29 0.29 92 1005.0
20200706003821 79 308 0.0 2.0 0.00 0.29 0.29 92 1004.7
20200706003343 80 308 0.0 2.0 0.00 0.29 0.29 92 1004.8
20200706002838 80 308 0.0 3.0 0.00 0.29 0.29 92 1004.6
20200706002332 80 308 1.0 3.0 0.00 0.29 0.29 92 1004.6
20200706001827 80 122 0.0 2.0 0.00 0.29 0.29 91 1004.5
20200706001324 80 122 1.0 2.0 0.00 0.29 0.29 91 1004.5
20200706000820 80 122 1.0 3.0 0.00 0.29 0.29 91 1004.6
20200706000336 80 122 2.0 3.0 0.00 0.29 0.29 91 1004.6
20200705235829 80 139 2.0 3.0 0.00 0.29 0.29 92 1004.6
20200705235324 80 139 1.0 3.0 0.00 0.29 0.29 91 1004.6
20200705234839 80 145 2.0 3.0 0.00 0.29 0.29 91 1004.6
20200705234334 80 148 2.0 3.0 0.00 0.29 0.29 91 1004.6
20200705233829 80 145 1.0 3.0 0.00 0.29 0.29 91 1004.4
20200705233325 80 145 1.0 3.0 0.00 0.29 0.29 90 1004.5
20200705232328 81 135 2.0 6.0 0.00 0.29 0.29 89 1004.3
20200705231823 81 158 4.0 6.0 0.00 0.29 0.29 87 1004.4
20200705231338 81 138 3.0 6.0 0.00 0.29 0.29 86 1004.4
20200705230833 82 95 4.0 6.0 0.00 0.29 0.29 84 1004.3
20200705230330 81 40 3.0 6.0 0.00 0.29 0.29 84 1004.3
20200705225823 81 66 3.0 6.0 0.00 0.29 0.29 84 1004.2
20200705224830 81 66 3.0 5.0 0.00 0.29 0.29 84 1004.0
20200705224326 81 74 2.0 5.0 0.00 0.29 0.29 85 1003.8
20200705223841 81 41 3.0 5.0 0.00 0.29 0.29 85 1003.6
20200705223337 81 33 4.0 6.0 0.00 0.29 0.29 85 1003.6
20200705222831 82 33 4.0 7.0 0.00 0.29 0.29 85 1003.5
20200705222327 82 27 4.0 7.0 0.00 0.29 0.29 85 1003.3
20200705221823 82 41 3.0 5.0 0.00 0.29 0.29 85 1003.3
20200705221320 82 34 4.0 6.0 0.00 0.29 0.29 85 1003.4
20200705220835 82 58 4.0 6.0 0.00 0.29 0.29 85 1003.4
20200705220330 82 51 3.0 5.0 0.00 0.29 0.29 85 1003.3
20200705215823 82 41 2.0 4.0 0.00 0.29 0.29 85 1003.3
20200705215338 82 58 3.0 11.0 0.00 0.29 0.29 85 1003.3
20200705214833 82 30 5.0 11.0 0.00 0.29 0.29 85 1003.3
20200705214329 82 13 7.0 11.0 0.00 0.29 0.29 86 1003.3
20200705213827 82 76 6.0 11.0 0.00 0.29 0.29 87 1003.1
20200705213322 83 114 5.0 9.0 0.00 0.29 0.29 86 1003.1
20200705212330 83 95 5.0 11.0 0.00 0.29 0.29 84 1003.1
20200705211827 83 99 8.0 11.0 0.00 0.29 0.29 83 1003.1
20200705211342 83 119 7.0 11.0 0.00 0.29 0.29 82 1002.9
20200705210836 84 81 5.0 9.0 0.00 0.29 0.29 80 1002.9
20200705210334 84 27 4.0 9.0 0.00 0.29 0.29 81 1002.7
20200705205828 84 85 5.0 10.0 0.00 0.29 0.29 80 1002.7
20200705205324 84 46 5.0 10.0 0.00 0.29 0.29 79 1002.7
20200705204819 84 80 5.0 10.0 0.00 0.29 0.29 80 1002.7
20200705204334 84 36 6.0 10.0 0.00 0.29 0.29 80 1002.8
20200705203320 84 95 5.0 10.0 0.00 0.29 0.29 80 1002.8
20200705202842 84 43 5.0 12.0 0.00 0.29 0.29 80 1002.8
20200705202338 84 49 6.0 12.0 0.00 0.29 0.29 80 1003.0
20200705201830 84 76 6.0 12.0 0.00 0.29 0.29 80 1003.2
20200705201325 84 59 7.0 13.0 0.00 0.29 0.29 80 1003.3
20200705200841 84 43 7.0 14.0 0.00 0.29 0.29 79 1003.4
20200705200335 85 43 9.0 14.0 0.00 0.29 0.29 77 1003.2
20200705195827 85 66 4.0 12.0 0.00 0.29 0.29 80 1003.4
20200705195324 84 24 8.0 12.0 0.00 0.29 0.29 79 1003.3
20200705194821 84 85 6.0 12.0 0.00 0.29 0.29 79 1003.4
20200705194344 84 28 6.0 11.0 0.00 0.29 0.29 79 1003.4
20200705193838 83 78 6.0 11.0 0.00 0.29 0.29 80 1003.4
20200705193334 83 31 6.0 11.0 0.00 0.29 0.29 80 1003.3
20200705192827 83 48 4.0 13.0 0.00 0.29 0.29 81 1003.4
20200705192323 83 30 9.0 13.0 0.01 0.29 0.29 81 1003.7
20200705191822 83 21 5.0 10.0 0.02 0.29 0.29 82 1003.6
20200705191338 83 63 8.0 10.0 0.02 0.29 0.29 82 1003.7
20200705190822 82 51 6.0 12.0 0.02 0.29 0.29 82 1003.8
20200705190336 82 34 9.0 12.0 0.02 0.29 0.29 83 1003.7
20200705185828 81 67 7.0 11.0 0.02 0.29 0.29 85 1003.8
20200705185323 81 358 5.0 9.0 0.02 0.29 0.29 87 1003.8
20200705184820 80 51 5.0 10.0 0.02 0.29 0.29 88 1003.9
20200705184344 80 41 7.0 14.0 0.02 0.29 0.29 89 1004.0
20200705183843 80 42 8.0 14.0 0.02 0.29 0.29 89 1004.0
20200705183342 80 85 10.0 16.0 0.02 0.29 0.29 88 1004.2
20200705182836 80 42 8.0 17.0 0.02 0.29 0.29 87 1004.3
20200705182329 82 32 11.0 17.0 0.04 0.27 0.27 84 1004.3
20200705181823 82 47 5.0 9.0 0.04 0.27 0.27 85 1004.2
20200705181337 82 45 7.0 11.0 0.04 0.27 0.27 84 1004.3
20200705180834 81 9 7.0 11.0 0.04 0.27 0.27 84 1004.4
20200705180332 81 55 5.0 9.0 0.04 0.27 0.27 85 1004.4
20200705175822 81 30 6.0 9.0 0.04 0.27 0.27 87 1004.3
20200705175319 80 63 6.0 9.0 0.04 0.27 0.27 89 1004.4
20200705174834 80 42 4.0 11.0 0.04 0.27 0.27 90 1004.4
20200705174328 79 21 5.0 11.0 0.05 0.27 0.27 91 1004.6
20200705173824 78 61 5.0 9.0 0.05 0.27 0.27 91 1004.8
20200705173323 78 43 5.0 16.0 0.05 0.27 0.27 90 1005.1
20200705172845 78 73 8.0 16.0 0.05 0.27 0.27 89 1005.1
20200705172341 80 95 9.0 17.0 0.01 0.23 0.23 88 1005.0
20200705171836 80 114 11.0 21.0 0.01 0.23 0.23 87 1005.0
20200705171333 82 108 13.0 23.0 0.01 0.23 0.23 84 1005.0
20200705170825 85 74 15.0 23.0 0.01 0.23 0.23 78 1004.9
20200705170322 86 99 15.0 23.0 0.01 0.23 0.23 71 1004.6
20200705165836 87 90 9.0 15.0 0.01 0.23 0.23 72 1004.7
20200705165329 87 16 10.0 14.0 0.01 0.23 0.23 71 1004.7
20200705164820 87 57 6.0 10.0 0.01 0.23 0.23 77 1004.7
20200705164341 86 1 4.0 9.0 0.00 0.22 0.22 78 1004.6
20200705163834 86 5 5.0 9.0 0.00 0.22 0.22 78 1004.6
20200705163328 85 64 4.0 9.0 0.00 0.22 0.22 79 1004.8
20200705162824 85 45 5.0 9.0 0.00 0.22 0.22 80 1004.9
20200705161828 85 127 3.0 9.0 0.00 0.22 0.22 79 1004.9
20200705161322 85 33 5.0 9.0 0.00 0.22 0.22 78 1005.0
20200705160838 85 41 4.0 11.0 0.00 0.22 0.22 79 1005.0
20200705160333 85 42 5.0 11.0 0.00 0.22 0.22 78 1005.2
20200705155825 85 132 4.0 9.0 0.00 0.22 0.22 80 1005.2
20200705155322 85 52 5.0 9.0 0.00 0.22 0.22 79 1005.2
20200705154334 85 15 3.0 8.0 0.00 0.22 0.22 80 1005.4
20200705153828 85 3 2.0 8.0 0.00 0.22 0.22 80 1005.6
20200705153343 86 5 3.0 6.0 0.01 0.22 0.22 79 1005.6
20200705152835 85 317 3.0 5.0 0.02 0.22 0.22 81 1005.5
20200705152328 84 327 1.0 4.0 0.05 0.22 0.22 84 1005.6
20200705151820 83 305 2.0 4.0 0.05 0.22 0.22 84 1005.7
20200705151340 82 316 2.0 4.0 0.05 0.22 0.22 87 1005.9
20200705150833 81 309 0.0 2.0 0.06 0.22 0.22 91 1005.9
20200705150327 80 184 0.0 0.0 0.08 0.22 0.22 91 1006.0
20200705145838 79 197 0.0 3.0 0.10 0.22 0.22 92 1006.0
20200705145334 79 262 0.0 3.0 0.15 0.22 0.22 94 1006.0
20200705144828 79 234 1.0 4.0 0.21 0.22 0.22 95 1006.1
20200705144326 78 208 1.0 3.0 0.22 0.22 0.22 95 1006.2
20200705143822 77 213 1.0 3.0 0.22 0.22 0.22 94 1006.2
20200705143337 77 351 1.0 5.0 0.21 0.21 0.21 93 1006.3
20200705142830 77 40 3.0 6.0 0.20 0.20 0.20 93 1006.4
20200705142323 77 32 3.0 13.0 0.17 0.17 0.17 93 1006.4
20200705141819 77 55 4.0 13.0 0.17 0.17 0.17 93 1006.3
20200705141336 77 101 4.0 10.0 0.16 0.16 0.16 93 1006.4
20200705140830 77 95 5.0 14.0 0.16 0.16 0.16 92 1006.4
20200705140322 77 119 8.0 14.0 0.14 0.14 0.14 92 1006.3
20200705135830 78 102 4.0 11.0 0.12 0.12 0.12 92 1006.2
20200705135324 78 99 5.0 14.0 0.07 0.07 0.07 90 1006.3
20200705134818 79 136 8.0 14.0 0.01 0.01 0.01 88 1006.1
20200705134330 80 151 7.0 10.0 0.00 0.00 0.00 88 1006.1
20200705133825 81 248 1.0 3.0 0.00 0.00 0.00 89 1005.9
20200705133342 81 232 2.0 3.0 0.00 0.00 0.00 89 1005.8
20200705132835 80 257 1.0 3.0 0.00 0.00 0.00 89 1005.9
20200705132329 80 249 1.0 2.0 0.00 0.00 0.00 89 1005.9
20200705131843 80 213 1.0 3.0 0.00 0.00 0.00 89 1005.8
20200705131338 80 229 1.0 3.0 0.00 0.00 0.00 89 1005.7
20200705130836 80 177 1.0 4.0 0.00 0.00 0.00 89 1005.7
20200705130333 79 143 2.0 4.0 0.00 0.00 0.00 89 1005.7
20200705125825 79 147 2.0 8.0 0.00 0.00 0.00 89 1005.5
20200705125320 79 122 3.0 9.0 0.00 0.00 0.00 88 1005.4
20200705124835 80 106 5.0 9.0 0.00 0.00 0.00 87 1005.5
20200705124329 80 131 4.0 7.0 0.00 0.00 0.00 87 1005.3